Theta_e
306 306 306 306 307 307 307 307 307 307 307 307 307 308 308 308 308 308 308 307 307 307 307 307 307 307 307 304 302 303 302 303 307 309 311 311 314 315 312 311 310 309 308 307 306 307 310 311 312 313 312 313 316 316 314 313 313 315 317 316 314 315 316 318 319 319 319 320 321 322 323 324 324 324 324 324 325 325 324 324 336 345 348 349 349 347 346 345
306 306 306 306 306 307 307 307 307 307 307 307 307 307 308 308 308 308 308 307 307 307 307 306 306 307 306 302 302 302 303 305 308 309 311 313 314 313 312 311 310 309 307 307 307 308 309 310 311 312 312 313 315 316 314 313 314 315 317 316 315 316 317 318 319 320 320 320 321 321 322 323 323 324 324 324 324 325 325 324 340 352 351 348 348 346 345 346
306 306 306 306 307 307 307 307 307 307 307 306 307 307 307 308 308 308 308 308 307 307 307 306 307 307 304 301 302 303 304 307 309 311 313 314 314 313 311 309 308 307 306 307 308 308 308 309 310 310 312 314 313 314 314 313 313 314 316 316 316 317 318 318 319 319 320 320 321 321 322 323 323 324 324 325 325 324 326 324 332 349 353 349 348 346 345 347
306 306 306 306 306 306 306 306 306 306 306 306 306 307 307 307 307 307 307 307 307 307 306 306 307 306 303 301 302 303 306 310 312 314 314 313 312 310 308 306 305 304 305 307 307 307 308 308 309 309 312 315 314 314 313 313 313 313 315 316 317 317 317 318 319 320 320 320 320 321 321 323 323 324 325 324 324 324 326 325 323 340 352 350 347 346 345 347
305 305 306 306 306 306 306 306 306 306 306 306 306 306 307 307 307 307 307 307 307 307 306 306 306 306 303 299 301 304 308 314 315 315 312 309 309 307 306 305 304 303 304 306 306 307 307 308 309 309 312 316 316 315 313 313 313 313 314 315 316 317 317 318 318 319 320 320 320 320 320 322 324 324 325 324 324 324 323 328 321 333 350 349 347 347 346 348
305 305 306 306 306 306 306 306 305 306 306 306 306 306 306 306 306 307 307 307 307 307 306 306 306 306 303 299 302 306 310 316 314 314 313 308 308 307 305 305 305 304 304 305 306 306 306 308 308 309 311 315 317 317 314 312 313 313 312 314 315 316 317 318 319 319 320 320 319 320 320 321 323 323 324 323 324 324 323 326 321 334 349 349 348 348 349 350
305 305 305 305 305 305 305 305 305 306 305 306 306 306 306 306 306 306 306 306 306 307 306 306 306 306 304 302 306 308 309 313 312 313 313 308 306 306 306 305 305 306 306 306 306 305 306 307 308 309 311 313 315 317 316 314 313 312 312 313 314 315 316 317 318 319 319 319 319 320 321 320 321 323 324 324 324 325 323 325 332 342 348 348 348 350 351 351
305 305 305 305 305 305 305 305 305 306 306 306 306 307 306 306 306 306 306 306 306 307 306 306 306 306 305 304 307 309 309 310 311 312 310 307 306 306 306 306 305 306 306 306 305 305 305 307 308 309 311 313 314 315 316 316 314 312 312 313 313 315 316 317 317 318 318 319 319 320 320 320 320 321 322 324 323 325 323 327 345 351 350 351 350 351 352 352
304 305 305 304 304 305 305 305 305 305 306 306 306 306 306 306 306 306 306 306 306 306 306 306 306 305 305 305 307 309 311 310 309 309 307 306 307 306 306 306 306 306 305 305 306 305 306 306 308 309 311 313 313 314 315 315 314 313 312 312 313 314 315 316 317 317 318 318 319 319 320 320 320 320 320 323 323 325 322 329 348 353 351 353 353 351 353 353
304 304 305 304 304 304 304 305 304 305 305 305 306 306 306 306 306 306 306 306 306 306 306 306 306 305 304 305 307 309 310 307 308 307 306 306 306 306 307 307 306 306 305 305 305 306 306 306 307 308 309 310 312 314 313 313 314 313 313 313 313 313 314 315 316 317 317 318 318 318 319 320 320 320 320 324 329 329 320 331 347 352 351 353 353 352 353 354
304 304 304 304 304 304 304 305 304 305 305 305 305 305 305 305 305 306 306 305 305 306 306 306 305 305 305 305 306 308 308 306 308 307 307 307 306 307 307 307 307 305 305 305 306 306 307 307 307 307 308 309 311 313 313 313 312 312 312 313 313 314 313 314 315 316 317 318 318 318 318 319 319 319 320 322 331 334 330 340 348 348 349 353 353 352 352 353
303 304 304 304 304 304 304 304 305 305 305 304 304 304 305 305 305 305 305 304 303 305 306 305 305 305 305 306 305 307 305 306 307 307 308 307 307 307 307 307 306 305 305 304 305 306 306 307 307 307 307 309 310 311 312 312 312 312 311 311 312 313 313 313 314 315 316 317 318 318 317 317 318 319 320 321 325 332 337 343 345 347 350 352 354 353 352 352
303 303 304 304 304 304 304 304 304 304 305 304 304 304 305 304 304 303 303 303 302 304 306 305 305 305 305 306 306 305 305 306 307 308 308 307 307 307 307 307 306 305 304 304 305 305 305 306 306 306 307 308 309 310 311 311 311 312 312 311 312 312 312 313 313 314 315 315 318 318 313 315 318 318 320 323 324 327 330 333 338 345 351 354 355 354 354 353
303 303 303 303 303 303 303 303 304 304 304 304 305 304 304 303 303 303 303 303 302 304 306 306 305 305 305 306 306 305 306 307 307 308 307 307 307 306 306 307 307 306 305 305 305 305 305 305 306 306 307 308 309 310 311 311 312 313 312 311 311 311 311 313 314 314 314 314 317 318 312 314 319 319 321 324 326 329 325 324 334 343 349 353 356 356 356 355
303 303 303 303 303 303 303 304 304 304 304 304 304 303 303 303 303 303 303 303 303 303 305 306 305 306 306 306 307 308 309 308 309 308 308 308 307 306 306 306 306 306 305 306 306 306 306 306 305 305 306 308 310 310 311 311 312 313 313 312 311 312 311 313 314 313 314 314 316 316 312 315 318 319 321 321 325 331 328 326 333 340 346 351 356 357 356 355
303 303 303 303 303 303 303 303 304 304 304 304 303 303 304 305 305 304 304 303 304 304 304 304 305 306 307 308 308 308 308 309 310 308 308 308 306 305 305 306 306 305 306 306 307 307 306 306 305 305 306 308 310 310 311 312 312 313 314 314 311 311 311 312 313 314 314 314 315 315 313 316 317 318 321 320 322 326 328 330 334 338 342 347 353 355 356 355
303 303 303 303 303 303 303 303 304 304 304 303 304 305 307 308 307 306 305 304 305 305 305 306 306 306 308 308 308 308 307 308 308 307 307 306 305 305 304 305 304 304 305 305 306 306 306 306 306 306 306 307 309 310 311 312 313 314 315 315 313 311 311 311 312 313 314 314 314 315 314 315 317 319 320 320 322 321 324 328 332 337 337 342 351 353 354 355
303 303 303 303 303 303 303 303 304 304 304 304 306 307 309 310 308 307 306 306 306 306 306 307 307 308 310 308 308 309 307 307 307 306 306 305 305 305 304 304 304 304 303 303 304 304 305 306 306 306 306 307 307 308 311 311 313 314 315 316 314 312 312 311 312 313 313 314 314 314 314 314 316 318 320 322 324 321 322 324 327 334 335 339 348 350 352 354
302 302 302 302 302 303 303 303 304 304 304 306 307 309 311 310 309 309 308 308 309 309 310 309 309 311 311 308 309 309 308 308 308 306 305 305 305 304 304 304 304 303 302 302 303 303 305 305 306 306 306 307 307 307 309 310 311 313 314 315 314 312 312 312 313 314 314 313 313 314 313 314 315 316 319 323 326 323 320 322 324 331 334 337 346 349 350 353
302 302 302 302 302 303 303 303 304 304 304 305 306 309 311 309 309 310 308 308 309 310 310 309 309 309 309 309 309 309 309 308 308 307 306 305 305 305 305 304 304 304 302 302 302 303 305 306 305 305 305 306 307 307 308 309 310 311 312 313 313 312 312 312 314 315 315 313 313 314 314 315 315 315 318 321 325 323 320 321 322 327 332 335 343 348 348 349
301 302 302 302 302 302 302 303 304 305 305 304 305 308 309 307 308 308 307 306 307 307 307 306 307 307 307 308 308 307 307 307 307 307 307 306 306 306 306 305 305 304 303 302 303 304 305 306 305 305 305 306 307 308 308 308 309 309 310 311 311 311 311 313 314 314 315 314 313 314 314 314 315 316 317 318 322 324 323 321 321 323 329 332 336 344 347 346
301 301 301 301 302 301 302 304 305 306 306 306 306 308 308 306 307 307 306 307 307 306 306 306 307 306 307 307 308 308 307 307 307 307 307 307 306 306 306 305 305 304 303 303 304 304 304 304 306 305 306 306 307 307 307 308 308 308 309 309 309 309 310 312 313 314 314 313 314 314 313 314 315 316 317 318 318 322 325 324 322 321 326 330 332 339 346 347
301 301 301 301 301 301 302 304 306 307 308 308 308 309 307 306 307 306 307 307 307 307 306 307 307 307 307 307 308 307 307 307 307 307 307 306 306 306 306 305 305 304 303 303 304 304 303 303 304 306 306 306 306 307 307 307 308 308 308 308 309 309 309 311 313 314 314 313 314 315 314 314 316 316 316 319 318 320 327 330 328 323 323 328 330 337 344 348
300 301 301 301 301 302 302 305 308 309 308 309 309 308 307 306 307 306 306 307 306 307 306 307 308 308 308 308 308 307 307 307 307 307 307 306 305 306 306 305 304 304 303 303 303 303 303 303 303 305 306 306 306 307 307 307 307 308 308 308 308 309 309 310 311 313 313 313 314 313 312 312 316 316 315 318 319 319 324 328 329 326 324 328 330 335 343 348
300 300 300 301 301 302 304 306 308 308 308 309 308 307 307 306 306 306 306 307 308 308 308 309 308 308 308 308 308 306 306 306 306 307 306 306 305 305 305 304 304 304 303 303 303 303 302 303 304 303 305 306 306 307 307 307 307 308 309 308 308 308 309 310 310 311 312 312 314 313 310 311 315 316 315 317 318 319 319 321 324 323 325 329 329 334 343 347
300 300 300 301 300 301 305 308 308 308 308 309 308 307 307 306 306 306 307 309 311 312 309 308 307 306 306 307 307 306 306 306 305 306 306 306 306 305 305 304 304 303 303 303 303 303 303 304 304 303 304 305 306 307 307 307 308 308 308 308 309 309 309 309 309 310 310 311 313 313 311 311 314 314 316 317 316 318 318 318 320 320 325 329 327 335 346 347
300 300 300 301 300 301 305 307 307 308 309 309 308 308 307 306 307 306 308 313 316 313 308 306 306 306 305 307 307 306 307 307 306 306 306 307 307 305 305 304 305 304 304 304 303 303 303 303 304 304 304 304 305 306 307 307 308 308 309 309 309 308 308 309 309 309 310 311 313 314 312 310 311 314 316 317 316 317 317 318 318 320 327 329 327 339 348 347
300 300 300 300 301 301 302 304 306 307 309 308 308 308 307 307 307 307 311 318 318 311 307 306 305 306 307 308 307 306 307 307 306 307 307 307 307 306 305 304 305 305 304 305 304 304 303 303 303 303 303 303 304 305 307 307 307 308 309 309 309 309 309 309 308 309 310 312 312 312 312 310 310 314 318 317 316 316 316 318 318 321 329 329 328 341 348 347
301 300 299 300 302 304 304 304 305 308 309 308 308 308 307 307 308 309 314 318 314 309 309 308 306 308 308 309 309 308 308 308 308 308 307 307 307 306 306 305 305 305 305 305 304 304 305 304 304 304 303 303 304 304 305 307 307 308 308 309 309 309 310 309 309 309 310 313 313 311 311 311 309 312 317 316 315 315 317 317 317 321 330 329 329 341 347 347
300 300 299 301 304 307 307 306 307 309 309 308 308 308 307 308 309 312 317 317 313 311 311 310 309 310 309 310 311 309 309 309 309 308 308 307 307 307 306 306 305 305 305 304 304 304 304 305 305 305 304 304 304 304 304 306 306 307 308 308 308 309 309 311 310 309 311 314 313 311 311 311 311 311 314 317 316 316 317 317 318 321 328 329 330 340 345 346
299 299 300 302 305 306 308 308 309 309 308 307 307 307 308 309 310 315 318 315 313 313 312 312 311 311 311 312 312 311 310 309 308 308 308 308 309 309 307 307 307 306 306 305 304 304 304 305 305 304 305 305 304 303 304 305 305 306 308 307 308 309 309 311 311 311 313 313 312 311 311 311 313 313 314 319 319 318 318 318 319 321 326 327 330 340 345 345
299 300 303 305 306 306 308 309 309 308 307 308 308 308 309 311 312 316 316 314 315 315 313 313 312 312 312 312 312 312 311 310 309 308 308 309 310 308 307 309 309 308 307 306 305 305 304 304 304 305 305 305 304 303 304 305 305 305 306 308 309 310 311 313 313 313 313 313 311 311 312 312 313 315 316 318 319 319 318 319 318 320 324 324 330 342 346 345
301 303 305 307 307 307 309 309 308 308 307 308 309 309 310 313 315 315 315 315 316 315 313 313 313 312 312 312 312 311 311 311 310 309 309 309 309 309 308 309 309 308 307 307 308 307 306 305 304 304 305 304 304 303 303 305 305 305 306 308 310 310 312 315 315 314 313 313 312 310 313 314 313 316 318 317 318 320 318 319 318 319 323 323 331 343 347 346
302 304 306 308 308 308 310 309 308 308 307 308 309 310 312 315 315 314 315 315 314 313 312 313 312 312 311 312 312 311 312 311 309 310 310 309 309 309 309 308 308 307 307 308 308 308 308 308 305 304 304 304 304 303 303 304 304 305 305 308 310 310 312 316 315 315 315 316 315 313 315 315 314 318 321 318 318 319 318 319 319 322 325 323 331 344 347 347
304 307 308 308 309 310 310 309 308 307 307 309 310 311 314 316 315 315 315 313 313 313 313 312 312 312 312 311 311 310 310 310 310 310 310 309 309 308 308 308 308 307 307 308 308 307 307 307 305 304 304 303 304 303 304 304 304 306 306 308 310 309 311 316 318 318 318 319 320 317 316 316 316 320 321 318 319 318 318 319 320 326 328 323 330 343 347 348
306 308 309 309 310 311 310 309 308 307 308 310 311 313 314 314 314 316 316 313 313 314 313 312 313 313 313 311 310 310 309 309 310 310 310 309 309 308 308 308 309 308 307 308 309 307 307 307 305 305 306 304 304 304 303 305 306 307 308 308 309 309 310 316 320 320 319 322 322 316 315 315 315 318 319 319 319 317 317 319 321 327 330 326 328 339 346 347
306 308 309 310 311 311 309 309 308 307 309 310 311 313 313 312 313 316 316 314 313 314 313 313 312 311 312 311 310 309 309 310 310 310 311 310 310 309 307 307 309 309 307 308 309 308 306 307 305 304 305 305 305 306 304 304 305 307 308 310 309 310 310 313 319 320 318 320 320 315 315 315 314 317 320 318 319 319 317 318 324 327 329 328 327 336 344 346
305 307 310 311 311 310 309 308 308 308 310 310 311 313 313 313 313 315 318 317 314 314 313 313 312 310 310 312 311 309 309 311 310 309 309 310 311 309 307 307 308 308 308 308 308 307 306 307 307 304 304 305 305 306 306 304 304 306 308 310 312 315 314 312 319 322 320 320 318 315 315 314 313 319 320 318 320 321 317 319 326 328 328 330 327 332 343 347
306 308 312 312 310 310 309 308 308 309 310 311 312 314 314 314 312 313 318 318 315 314 313 312 311 310 311 311 310 309 309 311 310 308 308 309 310 309 306 306 307 307 307 306 306 308 309 309 311 308 306 308 308 306 305 306 305 306 309 310 312 316 315 312 316 320 321 323 320 317 317 315 316 322 323 321 323 323 319 320 327 328 329 330 328 333 343 347
308 311 314 311 309 310 308 308 309 310 310 311 313 314 313 313 311 311 315 316 316 315 314 312 311 311 311 310 310 309 309 310 310 310 310 308 308 309 306 305 308 307 307 305 305 310 312 310 311 311 309 311 310 305 305 307 306 308 312 313 312 313 312 313 314 314 317 323 323 321 321 319 318 323 324 324 324 323 322 322 325 328 330 330 330 336 344 347
308 313 315 311 309 309 308 309 311 311 311 312 313 313 312 312 311 312 315 318 318 316 313 311 311 311 310 310 310 310 310 310 310 310 310 308 308 310 307 306 308 308 307 306 306 313 315 313 312 312 311 312 311 306 305 307 308 309 312 313 312 312 313 315 316 314 312 318 321 322 323 321 320 321 322 324 325 325 328 327 325 328 331 330 333 340 345 347
310 316 315 311 310 309 310 313 313 311 312 315 314 312 311 312 312 312 315 317 317 314 311 310 310 309 310 310 310 310 310 310 310 310 310 308 307 309 307 306 308 308 307 308 311 314 315 314 313 312 311 311 311 308 306 307 308 309 311 311 311 313 314 315 317 319 316 316 317 319 322 325 329 327 321 323 326 327 331 330 327 331 332 331 338 343 346 346
311 314 314 311 310 310 312 315 315 312 313 315 313 312 312 312 312 312 312 315 318 315 311 310 309 309 310 310 310 310 310 311 311 310 309 308 306 306 306 307 308 307 307 312 315 313 313 315 314 313 312 311 311 309 307 308 309 310 311 310 311 314 313 314 315 317 321 323 319 320 324 326 330 330 325 326 329 331 334 332 331 336 334 333 341 345 346 346
307 309 312 312 310 310 314 316 315 314 313 313 312 312 312 311 312 313 310 312 319 318 313 311 310 310 310 309 310 310 310 312 312 310 310 309 307 306 307 307 307 308 309 313 315 313 314 315 315 316 317 317 316 312 308 309 310 310 312 311 312 313 312 314 314 314 322 326 320 324 328 324 323 329 332 331 331 333 335 331 335 341 336 335 342 346 346 346
307 310 313 313 311 312 315 315 313 313 313 312 312 312 312 312 311 313 311 310 315 318 315 313 311 310 309 309 310 311 311 312 312 311 310 309 308 306 307 307 307 308 310 311 312 313 316 316 315 317 318 317 318 316 311 310 310 310 312 312 312 313 312 314 316 316 322 325 321 326 328 323 321 326 331 331 328 331 335 332 336 340 334 335 342 346 346 346
310 312 312 312 311 312 313 312 312 313 312 312 313 313 313 311 309 310 311 310 312 317 316 313 311 310 310 310 311 312 311 312 312 311 310 309 309 307 306 307 307 308 311 312 312 313 317 318 316 316 316 316 316 316 313 311 310 311 312 312 312 313 313 315 317 318 321 322 322 324 325 323 325 327 328 332 331 331 335 333 333 336 333 334 341 345 346 346
311 311 309 308 309 311 310 309 309 311 310 311 313 313 312 311 309 309 309 310 311 314 316 313 311 311 312 312 312 313 312 313 313 312 310 310 309 308 307 306 307 310 314 312 312 316 318 318 318 316 316 316 315 315 315 313 311 310 312 313 313 315 315 316 318 318 319 320 321 325 328 330 331 329 328 331 333 337 345 343 338 337 334 332 339 344 346 346
309 309 307 306 307 310 309 308 309 309 309 310 312 312 311 310 309 309 310 310 311 312 315 314 313 314 314 313 313 314 314 314 314 313 313 313 312 312 311 306 305 312 314 311 315 321 319 317 318 317 317 317 316 318 317 315 313 310 311 314 314 316 317 317 318 317 317 319 323 329 331 331 332 330 328 331 333 336 344 347 343 341 338 336 340 344 346 346
306 307 306 305 305 307 307 307 309 308 309 311 311 310 310 309 309 309 310 310 310 311 313 315 315 317 316 314 314 315 315 315 315 315 315 316 315 314 313 310 308 310 310 308 313 319 319 317 318 318 318 318 318 318 318 317 316 312 312 314 314 315 316 317 318 317 316 320 326 330 329 329 335 332 327 329 331 331 337 343 344 343 342 341 344 345 345 346
304 304 305 304 304 305 306 307 308 308 309 311 311 310 309 309 309 309 309 310 311 311 312 314 317 318 315 314 315 316 316 316 316 316 316 316 317 316 314 313 312 311 310 310 312 316 319 319 318 318 319 319 319 320 320 320 321 318 313 313 313 314 315 317 318 318 317 319 322 325 325 330 338 334 327 328 330 330 336 340 342 345 344 343 345 345 345 346
303 302 303 303 304 306 306 307 307 308 310 310 310 309 308 308 308 308 309 310 310 311 311 314 318 319 316 315 316 317 317 318 318 317 317 316 316 315 314 314 314 314 314 313 314 318 320 321 320 320 321 320 320 321 321 321 325 323 317 315 316 316 317 318 318 319 319 319 320 321 322 331 341 338 330 329 329 330 337 340 341 343 343 342 344 345 344 345
303 302 302 303 304 305 305 306 306 308 310 309 309 308 308 308 308 309 309 309 309 310 311 313 318 320 319 317 317 318 318 317 317 316 315 314 314 313 313 313 312 314 316 314 315 319 321 323 322 320 321 323 321 321 321 321 324 326 321 317 318 318 318 319 319 320 321 321 324 324 323 333 344 340 332 330 329 332 339 341 341 342 343 341 341 343 344 344
Wind_Speed
17 17 17 17 18 18 18 18 18 18 18 18 17 18 18 18 19 18 19 19 20 21 21 22 23 25 26 26 27 28 30 30 28 23 14 12 11 8 8 8 9 13 16 17 15 13 13 12 11 13 11 8 5 4 7 7 5 4 4 9 10 10 10 10 10 10 8 8 10 11 14 15 12 13 10 10 11 9 9 4 6 10 13 17 26 35 34 31
18 18 17 17 18 18 17 18 18 18 18 18 17 18 17 17 18 18 19 19 20 20 21 21 22 24 26 27 27 28 30 29 25 20 17 15 12 10 9 9 11 14 14 10 8 10 10 9 10 9 6 5 4 5 7 6 6 6 5 9 11 10 10 10 11 11 11 11 13 12 13 15 11 8 6 8 14 14 12 5 11 14 11 16 25 32 32 31
17 17 17 18 18 18 18 18 18 19 19 19 19 18 18 18 18 18 19 19 20 21 21 22 23 25 27 26 26 27 27 23 15 10 9 8 9 8 6 6 8 9 6 4 6 11 11 13 16 12 6 5 5 7 8 7 7 8 8 10 11 10 10 11 13 13 13 13 14 14 11 14 13 9 5 9 14 17 16 10 4 12 15 15 17 23 28 28
18 17 17 18 18 19 19 19 20 20 20 20 20 19 19 18 19 19 19 19 21 21 20 22 24 27 27 25 25 25 20 13 5 1 3 3 5 4 2 4 8 6 3 5 8 12 14 16 15 10 7 6 6 8 9 8 7 8 10 12 11 9 11 13 14 14 15 13 13 15 11 12 13 13 10 12 13 16 16 17 15 10 19 19 17 19 22 23
18 19 19 19 19 20 20 20 20 20 20 20 20 20 19 19 19 20 20 19 20 21 21 22 24 27 27 23 23 22 13 4 1 4 5 6 5 2 3 7 9 6 5 7 9 12 15 14 11 9 6 5 6 7 10 12 9 7 12 16 13 11 13 12 14 17 16 15 13 17 15 8 9 12 15 14 12 9 11 19 21 12 20 21 19 18 18 19
19 20 20 20 21 21 21 22 21 21 21 21 20 21 20 20 20 20 20 20 20 20 21 22 23 25 26 23 22 17 5 0 0 4 6 4 2 3 6 9 9 6 4 7 10 11 11 9 8 6 5 5 8 9 9 11 11 9 12 16 16 15 15 11 14 16 15 17 16 16 17 7 8 12 13 15 15 12 8 16 17 13 21 21 20 18 16 17
20 20 20 20 21 21 22 22 21 21 21 20 20 20 20 20 20 19 19 19 19 18 19 19 20 22 24 24 19 8 4 6 10 6 5 0 4 5 6 9 10 6 4 7 9 9 8 8 8 6 6 7 8 11 11 11 13 13 13 15 17 18 18 15 15 14 14 19 19 15 15 12 12 12 10 15 17 17 13 10 10 16 21 20 19 18 17 17
20 20 20 20 21 21 22 22 21 20 20 19 19 18 19 19 18 19 19 18 18 17 18 18 19 20 22 20 13 4 5 8 8 4 4 1 3 3 6 9 9 7 8 10 10 8 8 9 9 7 7 8 8 11 12 11 12 15 17 16 15 16 18 18 18 17 16 15 14 15 17 17 16 12 9 15 17 17 15 6 15 20 19 18 18 18 17 16
20 20 21 21 21 22 22 22 21 20 19 19 19 19 19 19 19 20 19 19 18 17 18 18 18 20 19 14 6 5 7 6 4 3 4 2 2 2 5 8 8 10 11 12 12 11 8 7 9 8 7 9 10 12 12 11 10 13 17 16 15 16 16 16 18 20 20 15 11 14 20 22 21 15 10 12 13 16 17 9 17 20 17 15 17 18 17 16
21 21 22 22 22 22 22 23 23 22 21 21 21 21 21 22 21 20 20 20 19 18 19 17 16 18 17 11 5 4 6 5 2 0 4 2 4 6 8 10 10 11 12 12 12 11 8 7 9 10 9 9 10 11 12 11 10 12 15 15 17 18 15 14 17 20 18 17 17 16 18 21 23 18 10 10 10 12 16 12 18 22 20 18 17 16 17 17
22 22 23 23 23 23 24 25 25 24 24 24 24 24 24 24 22 21 20 20 19 19 18 16 15 15 13 8 4 4 6 6 6 6 6 7 10 10 10 11 11 12 13 11 11 12 12 13 12 9 7 6 8 11 12 12 13 15 16 15 17 17 15 17 17 18 15 15 21 21 19 19 18 17 14 15 12 7 8 10 15 17 18 20 19 16 15 15
22 22 23 23 24 24 25 25 25 25 25 25 25 25 26 25 25 23 21 22 21 19 17 15 14 12 11 7 8 12 10 11 13 12 13 14 14 14 12 13 14 15 14 11 11 14 16 17 14 10 7 6 7 7 7 11 13 15 16 15 16 16 15 18 18 17 16 14 19 20 19 19 17 15 17 19 18 10 6 11 13 10 9 13 14 13 11 12
22 23 23 24 24 25 25 26 26 26 26 26 27 27 27 27 27 25 24 23 20 17 15 13 12 10 7 4 12 18 18 17 15 15 16 15 15 16 14 15 16 17 17 15 14 16 18 19 16 11 10 10 8 6 9 13 13 13 15 12 11 12 12 15 16 18 19 15 17 18 14 17 20 21 18 16 18 17 10 9 14 14 12 12 11 10 9 11
23 23 24 24 24 25 26 26 26 27 27 28 28 28 29 29 28 26 23 19 15 14 13 10 9 8 5 7 17 23 20 19 18 18 19 15 15 16 15 17 18 20 20 19 18 17 17 20 17 11 9 9 8 8 11 12 9 9 11 10 8 8 9 12 14 18 20 17 16 18 12 14 20 25 22 15 13 15 16 11 12 16 16 14 14 13 12 11
23 23 24 24 25 26 27 27 27 28 28 29 29 30 30 28 25 21 17 13 11 12 11 9 7 6 3 9 19 18 9 13 19 19 17 14 13 13 14 18 19 18 19 20 18 15 16 17 13 8 7 8 8 8 8 7 6 7 8 9 8 8 8 11 15 17 20 18 16 16 11 11 18 23 23 18 11 9 13 10 11 17 18 16 15 15 14 13
23 23 24 25 26 26 27 27 28 29 29 29 29 29 28 24 20 15 10 8 8 8 7 6 7 8 4 5 10 9 5 11 16 13 12 13 11 11 12 14 13 13 13 13 13 12 13 12 7 6 7 7 6 6 6 6 6 6 6 7 9 10 8 10 14 17 20 18 17 16 11 10 14 18 20 20 16 11 10 6 11 15 17 18 15 14 14 12
23 24 24 26 26 27 27 28 28 28 28 27 27 28 25 18 13 11 8 8 8 8 6 6 6 8 7 9 10 9 5 9 12 7 7 10 8 9 9 8 8 10 11 11 12 11 9 7 4 4 6 5 5 5 5 6 6 5 6 7 9 12 11 9 11 15 18 17 17 17 14 14 11 12 17 20 21 17 13 8 10 11 11 14 15 15 14 14
24 24 25 25 26 27 27 28 27 26 25 25 26 28 21 11 8 11 10 9 7 8 8 9 7 3 6 10 8 7 6 6 9 9 7 7 8 9 7 6 6 8 8 8 9 9 6 5 4 4 4 5 6 6 6 8 8 8 7 6 7 10 12 12 9 11 16 17 19 18 16 19 15 10 12 17 21 20 16 12 11 12 12 11 13 15 14 15
24 24 25 26 26 27 27 27 25 23 23 24 26 26 14 10 8 5 6 5 3 2 4 5 6 4 5 6 8 11 12 14 10 8 11 10 10 9 8 8 7 6 6 4 6 7 5 4 4 5 5 6 8 9 10 11 12 13 11 9 8 8 9 11 9 9 13 13 16 18 17 20 20 15 11 10 14 18 18 14 10 11 12 12 12 13 13 15
24 24 25 25 25 27 27 24 21 20 21 23 27 22 9 7 7 1 1 4 7 9 10 8 9 10 11 9 10 14 15 15 13 7 11 12 11 9 7 7 7 6 6 5 6 5 5 5 5 7 8 10 11 13 14 15 15 15 13 12 12 11 8 9 11 10 11 11 12 17 19 21 20 18 16 11 9 14 20 19 12 11 11 12 13 13 14 15
24 24 25 25 26 27 26 21 19 18 18 22 22 13 6 9 6 5 6 7 11 16 18 17 16 17 18 15 16 17 13 11 11 9 11 11 12 8 3 5 6 5 6 8 8 6 5 6 8 10 12 13 14 14 15 16 17 15 12 12 11 10 8 10 13 12 12 11 10 16 21 23 20 15 15 16 12 11 16 20 17 14 12 12 14 16 15 13
25 24 25 26 26 28 26 19 16 16 17 18 13 6 5 11 9 11 11 7 11 15 17 18 18 17 19 20 22 19 11 10 10 10 13 11 8 6 2 4 6 5 6 7 6 5 6 7 10 14 13 14 15 15 15 16 17 14 11 10 10 9 9 10 13 14 13 9 7 14 19 18 17 16 15 17 17 12 10 14 16 15 13 11 13 15 15 13
24 24 25 26 27 29 25 17 15 15 15 14 10 6 9 12 12 15 10 7 12 13 11 13 13 12 13 15 19 17 10 9 9 8 10 9 7 6 5 6 7 7 7 7 6 5 6 7 10 14 13 14 15 15 17 15 12 11 10 8 8 10 10 8 8 13 15 11 9 11 12 10 12 16 16 14 18 16 11 11 13 15 14 13 13 14 16 16
25 25 25 27 28 26 23 17 13 13 15 15 11 9 16 15 14 15 8 4 8 10 8 9 9 8 11 11 10 11 9 6 6 7 9 8 7 7 7 7 8 8 7 9 11 9 9 10 11 13 14 15 15 14 15 12 8 10 12 11 9 11 13 11 10 11 12 14 15 11 9 8 9 16 17 12 15 18 15 11 9 12 12 12 13 14 17 19
26 27 27 28 26 24 21 14 10 14 18 14 9 14 17 16 16 15 7 2 4 6 5 5 6 4 7 7 4 2 5 5 6 7 9 10 8 6 7 6 5 7 9 11 12 10 11 12 13 14 14 15 15 13 13 11 8 8 12 14 14 14 14 15 17 13 7 10 13 11 8 7 9 17 19 15 14 14 14 14 12 11 9 10 12 13 16 18
27 27 27 27 25 23 16 6 9 17 16 10 13 17 16 14 17 14 4 2 4 3 1 0 2 3 5 1 3 1 4 4 5 9 12 14 13 7 4 4 4 7 10 10 8 6 7 10 12 15 14 15 15 13 13 12 8 7 9 13 17 17 16 16 19 14 6 6 10 11 9 5 5 13 17 17 17 16 13 14 17 14 9 11 13 13 16 17
27 27 27 25 22 18 10 5 13 16 9 8 15 17 15 13 16 11 1 1 2 2 1 2 1 3 5 3 1 1 2 2 3 8 9 8 7 5 4 3 3 6 6 6 5 4 6 10 11 13 13 12 11 10 12 13 9 6 8 12 15 18 19 19 18 13 6 7 10 11 11 7 4 8 14 16 18 20 18 15 17 17 13 14 14 14 18 19
27 28 27 25 18 10 8 9 13 11 7 12 15 16 15 15 14 7 1 1 3 3 1 1 2 4 6 10 9 5 5 7 6 4 6 12 10 2 6 7 6 9 9 6 6 5 7 10 11 12 11 8 8 9 12 14 11 8 10 14 13 14 18 18 16 12 7 7 9 10 11 9 6 6 12 18 18 20 22 19 18 18 17 16 15 15 18 19
29 28 26 22 12 4 7 9 9 8 11 16 16 16 17 14 8 2 2 1 2 3 3 2 2 4 7 10 8 7 8 8 7 7 9 12 11 5 4 8 9 12 13 10 10 8 8 11 11 10 9 6 8 11 11 12 10 10 12 15 14 13 13 14 13 11 7 7 9 12 12 9 7 7 9 16 19 19 20 19 18 17 17 16 15 16 18 17
30 28 22 17 8 3 5 9 8 9 12 15 15 16 16 10 3 1 1 1 1 3 4 2 2 5 7 8 6 6 7 8 6 7 9 8 9 9 7 8 7 8 9 10 12 10 10 13 13 9 6 7 9 12 11 9 8 10 12 12 12 12 9 8 9 9 7 7 10 15 17 11 6 7 8 10 14 18 16 13 15 17 17 16 14 16 18 16
32 25 16 11 6 3 4 6 7 11 11 13 15 15 11 3 1 1 2 1 3 4 4 2 4 7 7 9 9 6 7 9 7 7 5 3 6 7 6 6 5 4 6 7 8 9 10 11 10 8 8 9 10 11 11 10 8 8 8 7 7 8 6 5 6 8 6 7 11 15 17 12 6 5 8 9 12 17 16 12 15 19 20 18 14 15 17 17
30 19 10 6 4 2 3 5 10 12 11 13 14 10 4 1 1 1 1 4 4 3 4 4 6 8 10 12 12 10 8 7 6 8 6 3 4 4 5 3 0 1 4 4 4 6 8 9 9 10 10 9 8 7 8 8 9 7 6 5 5 4 5 5 5 6 6 7 11 13 11 8 6 6 10 16 14 14 13 13 17 19 20 18 15 16 16 16
23 13 6 2 2 3 3 5 10 9 10 13 10 4 1 1 2 1 2 3 2 3 6 7 9 11 13 12 11 10 9 6 6 8 7 6 4 5 8 6 3 3 3 1 3 2 4 7 10 11 9 8 7 4 4 5 5 6 5 5 5 3 4 5 4 5 5 6 12 13 8 4 4 7 13 19 15 12 12 14 16 17 18 17 16 17 15 16
17 8 5 4 4 4 3 5 7 7 10 10 5 1 1 1 1 3 3 2 2 6 7 8 12 12 9 8 7 6 4 4 6 6 5 3 1 3 6 7 9 8 3 1 2 1 2 5 6 8 5 6 9 7 6 7 7 8 6 4 5 5 5 4 3 3 5 5 8 9 6 2 2 6 11 13 10 9 11 15 15 14 17 18 17 18 17 17
14 7 7 7 6 4 3 5 4 5 8 6 2 1 2 2 2 2 2 2 3 7 8 8 9 9 5 5 6 4 3 2 5 5 3 2 3 4 4 5 9 8 3 1 3 3 5 6 7 9 7 6 8 9 9 8 7 8 6 4 5 6 6 4 3 4 4 4 4 3 3 2 4 10 8 9 11 10 10 14 16 13 18 20 18 19 18 17
15 9 6 9 9 5 4 3 2 4 5 3 2 2 2 3 2 0 1 4 5 6 9 9 4 4 4 3 5 5 2 3 5 5 2 3 6 6 6 5 6 9 8 5 2 2 4 5 7 9 8 6 7 8 9 8 5 5 4 4 5 7 7 5 4 5 4 3 3 1 3 4 6 12 10 8 13 14 11 13 15 16 21 21 19 18 18 17
19 11 7 11 9 6 5 2 0 1 2 2 1 2 2 3 3 3 3 5 5 2 4 6 2 1 4 4 5 7 5 3 3 3 1 3 5 5 6 6 6 11 11 7 1 2 4 5 7 8 10 9 8 9 10 11 9 5 3 3 4 7 8 4 3 4 2 2 2 3 5 6 6 7 8 8 9 12 13 11 15 20 22 21 18 18 20 20
19 10 9 8 8 8 4 1 1 1 1 1 2 4 3 3 5 3 4 3 2 2 1 2 1 0 3 4 5 9 9 5 2 3 2 1 2 6 6 5 8 12 13 10 4 4 5 4 6 8 11 10 8 8 9 11 12 10 6 4 2 2 6 4 2 2 2 2 3 5 7 7 5 4 7 9 7 10 14 9 15 21 22 20 17 18 22 21
11 5 5 4 10 6 2 3 3 1 1 1 3 3 3 5 6 3 3 3 3 3 1 2 1 2 3 4 7 9 9 6 4 4 2 2 2 6 5 1 6 11 14 15 8 3 3 1 4 4 4 4 4 5 6 6 9 10 9 5 0 2 3 4 2 3 2 2 3 6 6 5 6 5 7 8 8 12 16 9 13 19 20 19 16 16 20 20
5 2 0 8 9 5 4 4 3 2 0 2 3 4 4 6 6 6 5 3 3 3 1 2 2 2 3 5 7 7 6 7 7 4 3 3 3 5 5 1 3 5 9 13 9 2 3 1 3 3 3 3 2 5 6 6 6 6 6 4 2 2 3 5 4 5 3 2 2 3 4 5 6 5 5 7 10 13 13 9 12 16 18 17 15 15 18 19
4 3 2 9 8 6 5 3 2 2 2 3 3 5 6 6 7 8 4 2 3 2 3 3 3 3 3 4 6 6 6 7 7 4 3 4 4 4 3 3 4 1 3 6 5 2 3 2 2 4 4 3 5 7 9 9 7 6 4 4 4 3 2 4 5 6 5 3 3 2 3 7 7 5 5 6 10 11 9 11 13 15 17 16 14 16 19 19
3 3 2 10 9 6 3 1 2 2 2 3 4 7 8 7 7 8 3 3 2 1 3 2 3 3 4 4 5 7 6 6 6 4 4 6 5 3 3 5 6 4 3 3 4 3 1 1 2 5 6 8 10 9 12 13 10 8 6 5 5 4 3 3 5 5 3 4 6 2 4 8 7 6 8 8 10 10 8 11 12 13 16 15 15 17 19 20
2 4 2 9 9 5 1 3 3 1 3 5 7 9 8 8 7 6 5 3 1 2 2 2 3 3 4 3 5 7 6 5 6 5 6 8 4 3 6 6 5 3 3 3 4 2 2 2 2 5 6 7 10 9 12 13 9 7 6 6 7 6 5 6 7 6 4 3 4 1 3 8 7 7 10 10 9 6 7 12 11 9 10 13 17 18 18 20
3 4 3 7 7 4 1 3 4 4 5 7 8 9 9 9 5 6 8 7 2 2 3 1 3 4 4 3 4 6 5 4 6 7 8 8 4 3 8 8 6 4 2 1 3 3 2 1 1 3 3 2 3 3 8 10 7 5 5 7 10 10 10 9 7 8 6 4 3 1 3 7 8 10 9 8 8 4 4 9 11 8 7 11 15 17 18 20
4 3 1 3 6 4 2 3 4 5 6 7 8 10 11 8 5 7 10 9 5 1 4 2 3 4 4 5 5 8 7 5 4 6 7 7 6 1 9 9 7 6 4 4 7 6 2 1 1 1 2 2 1 1 4 6 5 4 5 9 12 12 12 8 5 5 6 4 1 1 3 8 12 15 13 7 6 7 3 6 9 10 8 10 13 14 17 18
3 1 2 1 3 3 3 4 4 4 6 7 7 8 10 7 7 9 10 9 7 2 3 2 2 2 3 4 5 7 6 5 6 7 7 7 8 2 8 10 7 8 9 10 12 7 2 2 2 2 3 3 4 6 5 2 6 8 9 12 13 11 10 7 4 4 5 3 1 3 6 10 14 16 16 15 7 3 5 6 7 9 10 13 14 14 16 17
2 2 3 3 3 3 3 5 5 5 8 9 6 5 7 9 9 9 8 6 9 7 1 3 2 1 4 4 5 5 5 6 6 7 8 8 8 7 1 6 7 12 14 11 10 6 0 0 3 5 6 8 9 9 11 9 7 10 11 12 10 9 10 8 5 6 8 6 5 5 6 7 10 13 12 14 14 5 1 3 5 8 10 13 16 17 17 17
3 2 2 3 2 4 5 7 7 9 14 13 5 3 8 12 11 10 9 8 9 8 4 1 2 5 6 5 4 4 5 8 6 5 9 8 8 10 4 5 6 10 10 5 4 4 1 1 2 3 6 11 9 6 8 12 11 10 11 10 9 9 12 10 6 7 9 8 6 3 4 6 8 12 12 11 13 11 3 4 3 7 9 12 17 20 20 19
4 3 3 5 3 5 7 9 10 11 14 10 4 6 10 12 12 10 9 9 9 6 6 7 8 9 8 5 4 3 4 5 6 6 8 8 9 9 5 4 3 3 7 4 2 2 2 1 6 8 9 13 9 4 5 7 7 9 11 9 10 12 13 10 6 9 13 10 4 3 3 9 7 8 12 12 13 14 7 6 6 7 8 11 17 21 21 21
4 3 4 4 4 7 8 8 9 10 9 6 6 7 9 11 12 12 10 9 9 8 8 9 8 10 12 7 4 6 5 3 6 8 7 8 8 6 4 4 7 4 1 3 2 1 2 2 7 7 6 10 8 7 9 9 7 7 9 10 12 13 12 9 7 11 13 8 5 5 6 9 6 4 10 12 13 15 7 7 7 7 9 10 14 17 19 20
8 7 7 6 5 5 6 6 7 7 5 5 6 7 9 11 13 14 11 7 8 10 11 11 6 6 9 7 5 8 8 6 9 10 9 10 8 5 4 5 8 8 4 1 2 2 2 1 4 4 4 6 6 9 11 9 6 8 9 10 12 11 9 9 9 10 8 4 7 10 6 5 5 4 8 10 11 12 6 6 6 6 9 9 11 15 16 17
11 8 8 6 4 4 5 6 7 6 4 6 8 9 10 11 14 14 9 5 7 11 13 12 8 4 5 7 8 10 10 9 10 9 9 9 8 7 6 7 8 7 5 5 1 3 3 1 2 3 2 3 5 8 9 7 3 6 8 9 10 9 8 9 9 9 7 6 8 8 4 4 5 3 5 9 10 9 4 4 1 4 9 7 7 10 13 16
Wind_Direction
357 356 354 354 352 351 350 348 347 345 345 342 339 339 339 339 338 338 338 335 335 334 332 332 331 330 327 328 332 334 334 329 325 320 299 272 269 254 242 262 283 294 300 304 306 309 309 299 272 247 242 248 229 208 239 239 239 246 225 228 228 226 221 213 216 223 239 241 238 223 203 208 212 224 251 281 280 276 266 261 75 81 113 135 136 137 143 145
356 355 353 352 351 349 348 345 343 343 341 339 337 336 336 336 335 334 334 333 333 332 331 331 331 329 325 327 332 334 333 326 314 297 282 272 258 247 256 275 291 298 302 312 314 308 309 304 298 279 237 218 225 207 207 209 218 223 226 232 228 225 218 215 224 226 234 241 250 241 205 207 208 204 226 250 265 274 271 250 102 93 100 117 130 137 143 143
356 355 353 350 348 346 345 343 341 340 338 337 336 334 334 333 332 332 332 333 331 331 331 329 331 329 327 329 331 335 331 318 302 281 272 259 236 238 265 290 309 311 311 333 316 303 301 297 300 301 277 243 227 209 206 195 208 223 225 233 227 223 223 218 224 229 236 240 253 255 217 205 199 180 224 234 232 244 254 254 157 123 127 131 137 142 143 142
353 352 351 348 346 345 342 340 339 337 336 335 333 332 331 330 330 329 330 331 330 330 330 329 330 328 329 330 331 337 330 310 300 207 140 154 191 199 253 333 343 335 308 310 308 301 295 289 289 287 276 268 238 217 220 205 201 217 221 236 230 218 229 222 221 229 240 243 249 260 240 210 203 178 200 238 225 215 222 239 240 170 145 149 148 148 145 143
352 349 349 347 345 343 340 338 337 335 334 332 331 329 328 328 328 327 327 328 328 329 330 330 330 330 331 331 333 337 329 313 109 155 145 130 146 135 348 341 346 332 287 300 308 300 291 280 275 274 267 266 256 231 224 215 211 226 229 237 235 223 230 222 221 224 232 247 249 258 255 217 210 196 188 220 244 229 197 213 229 191 153 155 150 151 149 146
350 348 348 345 344 342 339 337 335 334 332 331 329 328 327 326 326 326 326 326 326 326 328 328 328 331 329 330 335 329 313 196 96 183 172 142 97 8 354 346 347 349 313 305 299 291 286 275 263 261 258 256 256 249 240 225 216 232 239 237 234 231 233 225 229 221 215 238 242 247 258 239 214 220 190 201 238 251 215 207 214 172 152 153 145 149 150 150
347 345 345 344 342 339 338 336 335 333 330 329 328 328 326 323 321 321 321 321 321 320 322 322 324 328 327 333 340 319 222 267 286 255 206 184 24 11 4 354 349 350 310 285 282 281 279 273 263 250 254 257 255 254 256 246 230 234 240 238 233 232 234 230 237 232 212 227 236 239 258 255 232 231 196 193 219 236 237 216 169 137 143 146 142 149 151 154
345 343 341 340 338 336 337 334 333 331 328 326 324 325 323 320 317 315 316 317 317 318 319 321 324 328 329 336 344 319 251 256 255 219 207 310 31 24 359 352 342 317 282 269 267 272 277 278 272 259 247 246 253 258 262 260 244 238 238 238 235 232 232 229 235 244 241 234 232 234 249 257 249 244 223 204 206 218 231 190 127 131 140 142 144 150 151 155
344 342 339 337 337 336 335 332 331 329 326 323 321 321 320 318 317 314 315 315 316 318 318 322 325 328 331 329 317 303 280 227 169 146 163 87 14 339 327 319 313 296 281 275 266 259 264 275 275 274 272 264 257 256 258 257 248 242 241 240 238 238 235 229 230 236 244 247 238 228 235 247 252 252 248 230 213 210 217 172 130 138 142 144 151 155 154 154
342 341 339 338 337 336 335 334 331 328 325 322 320 319 318 318 316 315 315 315 317 317 317 322 325 327 330 323 295 287 264 211 133 93 169 137 302 285 285 289 296 289 281 278 267 260 261 265 273 282 289 283 268 261 257 254 262 264 258 253 244 242 240 234 232 228 231 241 244 238 232 238 246 247 248 251 243 220 212 174 143 148 150 157 161 158 154 154
342 341 340 338 337 336 334 334 331 328 325 321 319 317 316 316 315 315 314 314 315 313 313 315 319 321 315 310 285 251 244 251 289 306 292 294 288 281 282 286 291 287 284 282 273 271 271 273 278 280 281 283 279 272 262 258 267 272 272 270 258 248 241 236 233 228 225 231 234 239 245 243 244 244 239 245 250 228 194 151 145 155 156 160 159 154 154 157
341 340 340 338 336 335 333 332 330 328 324 320 317 314 313 312 312 313 312 313 312 306 305 305 310 309 298 288 243 242 262 281 291 307 307 299 292 287 284 280 279 274 272 272 273 276 276 279 279 270 273 292 294 282 275 277 276 273 271 270 266 259 245 234 231 229 229 228 220 225 245 248 243 242 235 237 239 228 168 134 139 139 137 148 145 147 155 161
340 339 338 337 335 333 332 330 328 326 322 319 314 311 310 310 311 311 310 311 308 302 297 298 303 293 288 268 246 267 290 292 291 296 289 285 286 282 275 272 272 264 258 257 261 269 274 282 285 281 280 277 276 289 299 294 287 276 266 261 264 263 249 233 226 225 231 234 210 204 230 241 240 242 236 232 235 234 220 172 154 144 139 146 144 145 158 165
339 338 336 335 332 331 330 329 328 325 321 318 314 311 309 309 308 308 311 308 303 305 299 295 295 277 257 257 274 291 295 280 274 271 265 268 277 277 272 267 266 259 250 248 252 259 265 275 283 285 281 273 278 296 292 286 283 276 264 253 247 248 245 234 226 218 225 237 215 200 215 229 233 239 238 231 228 232 232 212 165 154 151 153 155 152 160 171
338 336 335 333 331 330 330 329 328 324 321 318 315 313 311 310 308 308 313 304 299 307 297 289 270 253 263 267 283 299 291 258 260 258 251 255 266 266 263 260 259 260 252 241 242 251 254 259 268 271 274 278 281 281 277 278 276 271 259 244 234 238 241 234 232 221 218 229 222 210 217 222 223 230 235 233 220 209 225 211 157 158 157 156 161 156 162 172
336 336 334 333 331 331 330 329 327 324 322 320 318 318 315 312 308 309 307 288 307 316 288 280 227 215 270 281 286 290 228 227 246 251 237 231 246 260 269 273 274 285 280 255 247 258 255 247 249 259 266 271 262 254 263 272 264 255 249 246 234 229 234 232 232 228 221 220 221 222 226 227 219 219 227 235 228 204 210 197 151 165 165 158 161 159 161 164
336 335 333 333 332 331 330 328 327 325 324 325 325 325 322 314 298 290 281 261 299 307 256 252 225 203 245 275 302 297 248 222 223 216 204 207 230 264 285 302 300 301 299 284 268 264 258 245 234 248 251 252 252 245 241 243 248 253 244 250 246 230 226 225 223 227 225 219 219 223 229 235 226 212 214 225 232 224 216 202 162 168 173 161 159 160 161 159
335 333 333 333 331 331 330 328 328 328 329 329 330 332 335 338 296 261 255 254 283 294 255 251 247 214 248 255 265 266 283 280 222 184 179 205 233 249 263 276 285 294 294 285 259 241 234 229 219 237 242 231 237 236 233 231 231 241 241 242 253 240 229 225 219 224 226 222 217 215 227 237 234 229 215 208 218 226 226 214 178 168 174 167 160 162 162 159
334 333 333 332 332 331 329 329 330 330 332 334 341 346 2 20 341 262 223 229 226 262 254 233 202 210 288 264 237 249 281 295 272 204 186 205 233 238 237 249 263 267 266 276 249 228 212 214 218 229 239 229 225 225 235 243 235 238 248 249 250 247 239 235 232 227 224 226 218 211 222 234 232 235 233 207 202 217 229 223 189 169 170 170 166 165 162 160
334 333 332 330 331 330 329 332 331 330 328 330 339 346 4 17 353 352 192 230 225 245 262 257 228 243 277 280 274 285 297 297 289 249 204 205 222 232 227 235 252 247 238 247 255 243 207 209 224 223 230 232 233 230 233 246 248 246 250 254 255 252 248 243 243 240 226 229 222 211 219 228 227 228 232 229 206 208 223 221 202 179 170 169 169 166 164 164
334 333 331 330 331 329 331 331 326 327 322 321 327 327 2 20 3 350 335 274 249 254 260 264 258 261 270 272 280 290 296 292 288 276 258 236 217 218 201 211 237 242 232 234 246 263 234 218 221 223 230 234 239 241 235 239 247 250 250 254 261 258 257 243 236 242 237 234 225 211 218 223 219 221 225 223 217 212 215 212 202 191 180 171 168 167 168 163
334 333 331 330 329 328 330 329 322 322 316 316 315 289 8 19 353 341 339 299 275 264 256 260 259 261 268 270 273 273 271 268 270 268 265 256 230 225 208 217 238 238 234 235 236 257 254 240 228 225 229 232 236 243 243 240 239 244 249 251 258 263 274 262 237 237 240 243 236 217 219 221 211 218 225 214 214 220 211 202 197 193 188 179 171 166 164 156
335 333 333 330 328 327 328 325 320 323 317 306 293 298 359 5 347 347 342 297 295 283 254 249 248 250 260 262 260 258 255 257 263 265 249 234 230 239 237 240 253 249 236 233 229 232 243 249 241 232 232 234 235 237 243 246 239 236 240 244 251 252 261 272 250 237 234 238 248 233 226 222 209 220 229 218 215 219 213 202 200 197 192 187 180 165 159 157
334 333 332 329 328 327 328 326 323 331 324 300 290 337 2 2 360 360 344 272 294 294 262 238 233 238 244 239 235 234 236 245 253 269 261 241 223 213 220 234 249 257 248 239 239 237 240 245 246 238 230 233 240 238 238 244 245 235 232 235 245 249 249 257 267 258 238 236 240 236 233 230 211 216 223 218 217 220 218 210 205 205 196 184 180 168 161 161
334 332 329 330 329 327 330 331 329 333 324 315 342 2 358 356 358 359 346 276 291 277 248 220 209 240 249 220 177 220 264 260 238 253 267 267 263 227 207 214 227 249 252 254 253 247 247 244 243 244 232 227 236 242 241 238 246 245 232 230 236 249 253 252 263 267 251 241 233 220 227 232 212 210 210 205 209 218 222 219 213 212 200 176 175 171 165 164
333 331 329 330 328 330 338 332 329 332 319 329 7 359 350 349 347 351 352 284 304 263 232 109 200 329 336 178 130 16 310 278 241 256 252 248 258 257 226 206 207 234 241 253 259 247 255 250 245 251 245 232 228 234 244 242 245 248 235 229 227 238 252 254 258 258 244 252 242 224 225 236 223 209 200 195 202 210 218 220 215 214 203 183 177 170 166 165
332 331 329 327 328 335 342 319 330 337 324 338 353 342 337 337 336 343 337 229 342 290 314 5 333 354 348 342 36 188 259 289 248 248 250 259 270 247 233 249 248 255 247 246 256 245 258 259 254 258 258 249 235 226 230 236 246 249 242 239 225 223 236 248 256 256 251 270 265 245 231 229 243 219 199 193 200 210 216 217 215 213 204 191 179 166 166 165
331 331 329 327 327 319 287 293 319 328 327 334 333 327 328 330 335 348 65 78 7 330 4 36 3 9 356 346 338 303 298 309 287 272 313 323 328 283 228 247 250 271 279 270 265 268 270 264 256 259 261 257 255 245 223 221 239 252 252 257 246 225 225 235 252 258 254 268 273 261 243 229 232 226 200 193 195 206 214 214 211 206 197 187 172 162 166 166
330 332 332 328 327 299 267 276 289 305 327 331 323 321 323 325 339 26 111 35 338 334 26 60 4 349 351 346 326 309 324 314 299 330 329 309 317 344 272 256 243 254 270 268 263 269 273 276 274 269 268 263 266 269 245 219 225 245 252 262 267 254 230 223 239 253 252 252 258 260 255 239 225 221 200 193 193 198 208 212 207 200 189 179 166 161 167 167
332 335 336 329 328 6 299 267 275 313 330 331 325 321 317 316 347 36 311 310 302 335 350 24 10 322 325 326 300 284 286 272 265 308 319 305 308 325 325 308 282 254 266 268 265 264 254 265 280 280 279 283 284 285 277 253 234 235 242 255 266 263 246 221 229 241 241 241 249 253 255 255 236 215 201 194 192 191 199 206 201 195 187 180 168 162 167 166
335 337 335 322 311 336 299 273 317 336 328 326 325 318 310 306 56 18 9 339 287 323 344 355 328 308 311 311 298 281 263 263 259 261 282 315 300 301 315 319 304 260 273 271 271 279 260 253 266 268 264 274 285 292 295 297 280 248 234 246 262 260 252 241 231 227 223 235 244 247 252 256 255 228 203 193 193 193 194 191 193 193 187 182 170 162 167 165
339 336 321 307 291 250 244 293 333 332 322 326 324 315 304 19 59 205 359 343 295 307 338 320 311 309 311 302 288 283 274 269 269 258 252 246 254 263 252 243 157 259 261 257 273 283 269 256 255 262 262 260 273 294 300 307 300 271 235 230 255 259 245 238 231 227 221 235 241 247 261 255 253 267 219 197 192 194 194 192 196 195 187 180 166 162 165 163
339 328 299 259 220 215 229 309 327 324 325 329 323 309 286 345 14 31 344 347 314 319 321 310 308 305 306 303 289 286 283 267 267 262 251 244 244 251 243 215 178 233 231 264 310 299 279 271 253 252 258 246 246 268 288 295 294 273 235 213 232 244 244 235 231 235 223 234 242 244 265 274 276 276 223 199 190 186 191 202 202 195 187 178 161 159 162 163
337 310 274 216 214 228 248 305 324 328 326 328 317 294 6 330 348 7 350 335 290 305 304 303 307 303 296 280 278 308 315 275 273 267 252 239 215 250 247 206 197 215 216 273 284 208 281 285 245 239 237 219 226 232 245 262 280 281 260 226 228 238 255 243 225 235 213 228 250 238 236 239 260 250 209 190 194 188 187 206 208 188 181 175 158 157 163 165
339 312 278 234 225 231 238 275 317 336 323 323 313 286 6 351 332 356 340 291 287 292 291 298 299 296 293 262 282 355 74 240 300 312 282 240 218 233 242 211 196 194 170 200 223 202 237 260 259 259 251 222 226 229 236 250 270 277 258 231 231 241 265 268 255 256 214 224 262 231 214 235 260 268 239 190 205 207 189 203 205 179 172 171 160 162 167 166
350 348 291 244 241 233 210 235 340 353 320 329 359 328 349 331 308 81 256 270 284 297 307 312 291 278 307 304 325 359 103 219 315 337 289 257 259 248 250 245 190 170 178 197 227 212 224 254 267 274 281 265 248 242 235 229 244 274 258 232 238 247 262 271 271 271 228 224 266 229 246 251 250 273 270 214 209 218 209 203 197 176 169 170 165 163 168 166
347 347 290 251 236 202 180 209 5 359 326 13 5 291 305 296 257 212 215 253 277 310 331 326 339 349 317 310 323 336 334 299 327 346 282 274 274 240 244 255 180 170 193 197 209 253 232 264 279 280 286 282 273 266 252 238 240 259 268 273 280 269 265 259 265 280 243 232 276 247 251 248 228 254 259 228 216 228 227 204 183 175 167 170 169 163 168 169
331 321 295 254 193 162 152 146 134 151 341 7 268 253 238 259 256 222 198 216 231 139 131 303 301 153 304 311 316 324 326 319 332 327 274 243 255 219 225 237 178 177 190 182 188 234 214 259 278 256 261 271 272 262 252 247 247 248 260 304 5 249 262 258 206 233 224 225 275 264 258 257 242 239 240 228 214 232 237 202 171 175 168 171 173 163 167 168
315 299 299 180 159 162 158 133 132 100 23 290 270 262 249 267 278 273 229 199 140 123 168 239 231 234 262 297 309 315 318 307 307 316 263 196 249 238 240 247 176 185 186 178 191 215 150 262 276 228 250 301 287 242 223 229 243 247 260 286 43 170 266 295 251 223 202 194 247 263 265 264 249 230 220 214 203 225 233 203 171 177 171 171 171 159 164 165
305 292 226 148 157 191 175 141 141 110 103 247 256 263 270 278 294 307 281 219 143 122 166 207 226 258 271 295 305 306 310 302 295 293 253 237 256 246 245 212 160 199 194 179 184 159 101 145 270 289 334 356 265 229 208 197 212 224 237 255 260 258 301 312 281 242 219 189 212 240 262 266 255 239 228 219 216 223 216 185 177 178 172 172 164 152 160 162
298 321 174 156 165 180 152 145 183 154 221 249 248 260 280 295 303 311 308 144 134 149 149 178 223 255 281 292 303 303 310 309 297 286 258 250 251 247 233 161 145 212 209 172 163 92 79 144 231 302 313 283 257 233 210 209 209 202 200 219 242 256 276 308 290 240 218 219 220 206 255 263 258 249 254 241 230 226 194 172 178 171 167 169 155 149 157 158
269 342 165 169 181 181 146 246 236 171 226 264 281 284 304 315 301 304 326 88 98 134 133 159 222 247 264 270 297 308 313 305 290 288 267 250 235 198 149 137 152 167 139 113 91 70 50 160 219 265 258 251 262 241 209 212 214 203 201 219 231 230 209 234 265 252 227 232 240 240 259 265 268 258 258 251 236 228 181 161 167 162 163 161 148 150 156 155
255 324 201 177 191 196 192 295 281 242 261 284 292 296 311 306 294 316 336 5 83 166 153 161 217 229 252 276 302 308 317 301 277 269 273 279 277 160 143 139 145 131 112 98 89 112 223 192 224 267 261 251 262 241 204 204 209 204 207 222 229 230 219 218 241 265 279 244 242 281 273 271 286 278 259 238 223 218 168 157 158 155 158 152 148 151 153 154
294 290 213 180 200 214 273 285 289 296 288 291 300 310 310 297 308 349 336 332 332 182 157 169 220 221 254 281 283 287 297 291 281 281 280 288 295 149 133 135 146 137 137 161 117 136 213 184 209 286 327 339 301 237 189 194 206 207 205 223 232 233 230 231 245 265 269 245 218 236 267 271 291 299 277 221 179 150 173 171 152 141 146 146 149 151 151 155
305 262 178 159 191 215 257 256 273 290 294 306 317 317 307 302 351 1 334 326 321 168 142 194 224 208 249 269 270 276 261 222 252 295 296 298 302 152 132 150 174 152 139 145 125 124 172 196 201 333 19 17 342 232 188 180 193 213 219 230 241 244 240 241 260 263 256 249 178 181 264 282 301 318 315 274 176 137 192 194 138 128 139 141 146 149 148 153
322 281 347 16 204 236 261 264 290 300 302 321 322 304 304 323 354 353 342 329 314 328 122 179 220 201 254 275 287 286 266 227 229 258 284 310 318 346 143 172 185 154 163 168 148 143 179 188 196 215 210 232 260 272 276 213 182 199 214 225 241 258 264 269 290 273 273 307 318 265 284 298 308 322 327 315 303 146 186 213 158 138 143 144 147 149 150 154
316 314 6 360 290 300 323 312 327 326 308 313 306 278 313 347 350 340 340 323 311 324 22 149 146 272 279 295 304 290 293 296 266 261 300 320 317 321 215 196 188 164 173 176 155 149 73 173 216 221 222 248 272 285 297 290 235 203 206 221 234 256 267 265 265 283 302 309 272 273 322 331 311 306 313 320 319 329 93 198 182 158 156 155 149 149 153 156
350 315 30 37 301 311 333 311 313 316 305 301 297 304 340 355 350 334 329 318 316 326 335 313 286 278 268 264 271 277 301 315 308 313 332 326 315 324 311 231 213 170 159 139 126 137 149 247 292 319 294 291 293 290 290 282 254 215 204 218 228 242 256 254 249 269 277 267 239 237 333 317 288 287 301 321 315 309 3 72 129 143 152 155 150 152 155 157
1 312 2 32 335 293 294 294 302 307 302 304 342 9 356 349 339 328 322 316 319 337 353 337 315 305 298 266 233 260 298 317 313 320 329 316 314 326 312 273 285 149 137 128 146 153 156 325 357 354 320 311 320 336 321 308 274 230 209 212 224 236 250 253 249 255 252 251 235 158 270 279 261 268 297 321 319 308 335 50 63 92 116 137 147 153 156 156
6 336 339 346 319 293 286 297 306 299 302 337 13 8 352 338 330 326 318 315 326 337 341 333 317 311 313 301 251 263 278 283 278 286 303 302 306 316 304 321 346 350 144 163 176 116 98 17 354 357 328 316 332 357 350 345 325 272 229 213 222 232 247 252 246 251 250 253 261 235 245 267 258 272 304 321 324 310 324 54 61 75 90 109 134 146 152 155
359 348 333 311 299 306 301 306 311 302 313 357 4 354 346 334 326 321 312 313 332 327 319 319 311 297 301 293 264 275 287 281 266 264 270 276 280 284 286 318 336 327 310 267 151 109 98 10 341 1 342 305 328 355 334 318 317 290 252 227 226 228 235 236 230 242 243 198 221 238 240 256 265 293 307 310 308 299 316 40 45 73 88 99 127 142 149 151
351 341 333 313 284 305 317 308 311 317 330 351 352 345 336 327 321 318 316 325 328 318 314 311 301 280 292 306 312 309 304 294 279 267 260 261 264 268 272 282 290 297 314 316 313 133 143 127 43 360 326 277 310 331 311 298 302 271 246 228 231 232 229 231 229 239 241 197 202 222 210 214 242 263 287 293 297 300 337 23 2 104 97 97 118 135 148 152